{"data":{"norad_id":62767,"epoch":"2026-05-25T04:00:03.998880Z","epoch_age_seconds":74828,"freshness":"FRESH","line1":"1 62767U 25015K   26145.16671295 -.00021348  00000+0 -62229-3 0  9999","line2":"2 62767  53.1600 327.1152 0001506  84.9080 206.3100 15.34408030  5855","mean_motion":15.3440803,"eccentricity":0.0001506,"inclination_deg":53.16,"raan_deg":327.1152,"arg_perigee_deg":84.908,"mean_anomaly_deg":206.31,"bstar":-0.00062229,"rev_number":585,"period_min":93.847266948935,"perigee_km":461.6491465131,"apogee_km":463.70960040479,"semimajor_km":6840.8163734589,"source":"CELESTRAK","updated_at":"2026-05-25T13:38:19.744925Z"}}